THORAD DELTA 1 DEB, 8152

Orbit data source: Space-Track

THORAD DELTA 1 DEB, 8152 is space debris in SSO originally from a launch on Fri, 15 Nov 1974 UTC launched from the Air Force Western Test Range (AFWTR). Debris objects in space refer to the collection of defunct objects orbiting the Earth. Examples of debris include non-operational satellites, rocket bodies, and fragments generated from explosions, collisions, or faulty payload assembly.

Loading next visibility...
Identifier
8152, 1974-089S
Orbit
SSO
Country
Flag of USUS
Related business
Manufacturer
Unknown
Mission
Spacecraft
Bus & Motor
Unknown
Mass
Unknown
Launch date (UTC)
1974-11-15 (51 years ago)
Launch vehicle
Unknown
Launch site
Air Force Western Test Range (AFWTR)
Object type
Payload
Rocket body
Debris
Shape & HBR
Unknown shape, 0.1 m
Radar Cross Section
Small (<0.1 m²)

Expand to show TLE details & history
Last TLE update: 22 hours ago

TLE from 22 hours ago
0 THORAD DELTA 1 DEB
1 08152U 74089S   25302.29128324  .00000065  00000-0  63262-3 0  9990
2 08152 101.8506 303.4839 0059892  81.3781 290.5029 12.60107900341607
Epoch: 2025-10-29T06:59Z
TLE epoch observation values (Epoch: 2025-10-29T06:59:26.871Z)
Latitude
10.95083°
Longitude
158.44004°
Altitude
1,408.214 km
Speed
7.164 km/s
True Right ascension
20h 04m 40s
True Declination
10° 53' 32"
Sunlit
Object was in daylight at epoch
Visualization orbit readout
Latitude
Unknown
Longitude
Unknown
Altitude
Unknown
Speed
Unknown
Apparent Right ascension
Unknown
Apparent Declination
Unknown
Sunlit
N/A
Visualization observer readout
Local Sidereal Time
00:08:16
Azimuth
Unknown
Elevation
Unknown
Doppler factor
Unknown
Orbital elements
Apogee altitude
1,466.743 km
Perigee altitude
1,373.334 km
Semi-major axis
7,798.176 km
Eccentricity
0.00599
Inclination
101.8506°
RAAN
303.4839°
Arg. of periapsis
81.3781°
True anomaly
289.85839°
Mean anomaly
290.5029°
Eccentric anomaly
290.18081°
Mean motion
3.15176 °/min
Orbital period
114.22 mins
BSTAR
0.00063262
Loading maneuver chart data...
Computing Atmospheric mass density...
Loading historical data...
Loading historical data...
Loading historical data...
Loading historical data...
Loading historical data...
Loading historical data...
Loading historical data...

Documentation

Showing up to 5 results
|